When you browse on this site, cookies collect data to enhance your experience and personalize the content and advertising you see.
Visit our Privacy Policy to learn more. By continuing to use the site, you agree to this use of cookies and data.
  • In United Kingdom
  • List of Countries
  • For 7 days
  • Water Temperature
  • Weather Map
  • Weather Widgets
  • user-avatar
    Login

    Hourly Weather Erfurt

    Today, 11 December, Wednesday

    Time Temperature Precipitation Wind Pressure Humidity
    00:00 -1°C° 0 mm 4 mps 747 mmHg 75%
    01:00 -1°C° 0 mm 4 mps 746 mmHg 73%
    02:00 -1°C° 0 mm 4 mps 746 mmHg 71%
    03:00 0°C° 0 mm 5 mps 745 mmHg 70%
    04:00 0°C° 0 mm 5 mps 744 mmHg 68%
    05:00 0°C° 0 mm 5 mps 744 mmHg 66%
    06:00 0°C° 0 mm 4 mps 743 mmHg 63%
    07:00 0°C° 0 mm 4 mps 743 mmHg 62%
    08:00 0°C° 0 mm 4 mps 742 mmHg 61%
    09:00 0°C° 0 mm 4 mps 742 mmHg 59%
    10:00 +1°C° 0 mm 4 mps 741 mmHg 58%
    11:00 +1°C° 0 mm 4 mps 741 mmHg 57%
    12:00 +2°C° 0 mm 3 mps 741 mmHg 57%
    13:00 +2°C° 0 mm 3 mps 740 mmHg 56%
    14:00 +2°C° 0.1 mm 3 mps 740 mmHg 58%
    15:00 +3°C° 0.1 mm 2 mps 739 mmHg 60%
    16:00 +2°C° 0.1 mm 2 mps 738 mmHg 62%
    17:00 +2°C° 0.3 mm 2 mps 738 mmHg 67%
    18:00 +1°C° 0.3 mm 3 mps 738 mmHg 72%
    19:00 +1°C° 0.3 mm 3 mps 738 mmHg 77%
    20:00 +1°C° 0.7 mm 3 mps 737 mmHg 82%
    21:00 +1°C° 0.7 mm 3 mps 737 mmHg 86%
    22:00 0°C° 0.7 mm 3 mps 737 mmHg 91%
    23:00 +1°C° 0.3 mm 3 mps 736 mmHg 91%

    Tomorrow, 12 December, Thursday

    Time Temperature Precipitation Wind Pressure Humidity
    00:00 +1°C° 0.3 mm 3 mps 736 mmHg 91%
    01:00 +1°C° 0.3 mm 3 mps 736 mmHg 92%
    02:00 +2°C° 0.4 mm 3 mps 736 mmHg 93%
    03:00 +2°C° 0.4 mm 3 mps 735 mmHg 95%
    04:00 +2°C° 0.4 mm 3 mps 735 mmHg 96%
    05:00 +2°C° 0.1 mm 3 mps 735 mmHg 95%
    06:00 +2°C° 0.1 mm 3 mps 735 mmHg 94%
    07:00 +2°C° 0.1 mm 3 mps 735 mmHg 93%
    08:00 +2°C° 0 mm 3 mps 735 mmHg 91%
    09:00 +2°C° 0 mm 3 mps 735 mmHg 89%
    10:00 +2°C° 0 mm 3 mps 735 mmHg 87%
    11:00 +3°C° 0 mm 4 mps 735 mmHg 86%
    12:00 +3°C° 0 mm 4 mps 735 mmHg 86%
    13:00 +3°C° 0 mm 4 mps 735 mmHg 85%
    14:00 +3°C° 0 mm 4 mps 734 mmHg 87%
    15:00 +3°C° 0 mm 4 mps 734 mmHg 89%
    16:00 +1°C° 0 mm 4 mps 733 mmHg 91%
    17:00 +2°C° 0 mm 3 mps 733 mmHg 90%
    18:00 +1°C° 0 mm 3 mps 733 mmHg 89%
    19:00 +1°C° 0 mm 3 mps 732 mmHg 87%
    20:00 0°C° 0 mm 3 mps 731 mmHg 87%
    21:00 0°C° 0 mm 3 mps 731 mmHg 88%
    22:00 -1°C° 0 mm 3 mps 730 mmHg 88%
    23:00 -1°C° 0 mm 3 mps 729 mmHg 87%

    Day after tomorrow, 13 December, Friday

    Time Temperature Precipitation Wind Pressure Humidity
    00:00 -2°C° 0 mm 4 mps 728 mmHg 87%
    01:00 -1°C° 0 mm 4 mps 727 mmHg 86%
    02:00 -1°C° 0 mm 4 mps 726 mmHg 84%
    03:00 -1°C° 0 mm 4 mps 724 mmHg 82%
    04:00 -1°C° 0 mm 5 mps 723 mmHg 80%
    05:00 -1°C° 0 mm 5 mps 722 mmHg 78%
    06:00 -1°C° 0 mm 5 mps 721 mmHg 77%
    07:00 0°C° 0 mm 5 mps 720 mmHg 76%
    08:00 0°C° 0 mm 5 mps 720 mmHg 75%
    09:00 -1°C° 0 mm 6 mps 719 mmHg 75%
    10:00 0°C° 0 mm 7 mps 719 mmHg 75%
    11:00 0°C° 0.1 mm 7 mps 719 mmHg 78%
    12:00 0°C° 0.1 mm 7 mps 718 mmHg 82%
    13:00 +2°C° 0.1 mm 6 mps 718 mmHg 86%
    14:00 +2°C° 0.1 mm 6 mps 718 mmHg 87%
    15:00 +1°C° 0.1 mm 6 mps 718 mmHg 89%
    16:00 +1°C° 0.1 mm 6 mps 719 mmHg 91%
    17:00 0°C° 0.7 mm 7 mps 719 mmHg 92%
    18:00 0°C° 0.7 mm 8 mps 720 mmHg 93%
    19:00 0°C° 0.7 mm 8 mps 720 mmHg 94%
    20:00 0°C° 0.2 mm 8 mps 721 mmHg 93%
    21:00 0°C° 0.2 mm 7 mps 722 mmHg 92%
    22:00 0°C° 0.2 mm 7 mps 723 mmHg 91%
    23:00 0°C° 0.1 mm 7 mps 724 mmHg 91%

    14 December, Saturday

    Time Temperature Precipitation Wind Pressure Humidity
    00:00 0°C° 0.1 mm 7 mps 725 mmHg 92%
    01:00 +2°C° 0.1 mm 7 mps 725 mmHg 92%
    02:00 +2°C° 0 mm 7 mps 726 mmHg 89%
    03:00 0°C° 0 mm 7 mps 727 mmHg 85%
    04:00 0°C° 0 mm 8 mps 727 mmHg 81%
    05:00 0°C° 0 mm 7 mps 727 mmHg 82%
    06:00 -1°C° 0 mm 6 mps 728 mmHg 83%
    07:00 -1°C° 0 mm 6 mps 728 mmHg 83%
    08:00 0°C° 0.1 mm 7 mps 727 mmHg 84%
    09:00 +1°C° 0.1 mm 8 mps 727 mmHg 85%
    10:00 +1°C° 0.1 mm 9 mps 727 mmHg 86%
    11:00 +2°C° 0.1 mm 9 mps 727 mmHg 81%
    12:00 +3°C° 0.1 mm 9 mps 727 mmHg 77%
    13:00 +5°C° 0.1 mm 9 mps 727 mmHg 72%
    14:00 +5°C° 0 mm 9 mps 728 mmHg 73%
    15:00 +4°C° 0 mm 8 mps 729 mmHg 74%
    16:00 +3°C° 0 mm 7 mps 730 mmHg 75%
    17:00 +3°C° 0 mm 7 mps 730 mmHg 76%
    18:00 +3°C° 0 mm 6 mps 731 mmHg 77%
    19:00 +2°C° 0 mm 6 mps 731 mmHg 79%
    20:00 +3°C° 0.3 mm 6 mps 731 mmHg 82%
    21:00 +4°C° 0.3 mm 6 mps 731 mmHg 86%
    22:00 +5°C° 0.3 mm 6 mps 731 mmHg 89%
    23:00 +6°C° 0.2 mm 5 mps 732 mmHg 88%

    15 December, Sunday

    Time Temperature Precipitation Wind Pressure Humidity
    00:00 +6°C° 0.2 mm 5 mps 732 mmHg 87%
    01:00 +5°C° 0.2 mm 5 mps 733 mmHg 86%
    02:00 +5°C° 0.1 mm 4 mps 733 mmHg 87%
    03:00 +5°C° 0.1 mm 4 mps 733 mmHg 88%
    04:00 +4°C° 0.1 mm 4 mps 733 mmHg 89%
    05:00 +5°C° 0.5 mm 5 mps 732 mmHg 88%
    06:00 +5°C° 0.5 mm 5 mps 732 mmHg 88%
    07:00 +4°C° 0.5 mm 6 mps 731 mmHg 88%
    08:00 +6°C° 0.6 mm 7 mps 731 mmHg 84%
    09:00 +7°C° 0.6 mm 8 mps 731 mmHg 80%
    10:00 +8°C° 0.6 mm 9 mps 731 mmHg 76%
    11:00 +7°C° 0.1 mm 10 mps 732 mmHg 71%
    12:00 +7°C° 0.1 mm 11 mps 733 mmHg 67%
    13:00 +5°C° 0.1 mm 12 mps 734 mmHg 62%
    14:00 +5°C° 0 mm 10 mps 735 mmHg 65%
    15:00 +4°C° 0 mm 8 mps 736 mmHg 69%
    16:00 +3°C° 0 mm 7 mps 738 mmHg 73%
    17:00 +3°C° 0 mm 6 mps 739 mmHg 74%
    18:00 +3°C° 0 mm 6 mps 740 mmHg 75%
    19:00 +2°C° 0 mm 6 mps 740 mmHg 76%
    20:00 +2°C° 0 mm 6 mps 741 mmHg 77%
    21:00 +2°C° 0 mm 5 mps 742 mmHg 79%
    22:00 +1°C° 0 mm 5 mps 742 mmHg 81%
    23:00 +1°C° 0 mm 4 mps 742 mmHg 81%

    16 December, Monday

    Time Temperature Precipitation Wind Pressure Humidity
    00:00 +1°C° 0 mm 4 mps 742 mmHg 81%
    01:00 +2°C° 0 mm 3 mps 742 mmHg 81%
    02:00 +1°C° 0 mm 4 mps 742 mmHg 81%
    03:00 +1°C° 0 mm 4 mps 742 mmHg 81%
    04:00 +1°C° 0 mm 4 mps 742 mmHg 81%
    05:00 +3°C° 0 mm 4 mps 742 mmHg 81%
    06:00 +3°C° 0 mm 4 mps 741 mmHg 82%
    07:00 +3°C° 0 mm 4 mps 741 mmHg 82%
    08:00 +4°C° 0.1 mm 4 mps 741 mmHg 84%
    09:00 +5°C° 0.1 mm 4 mps 742 mmHg 86%
    10:00 +5°C° 0.1 mm 4 mps 742 mmHg 87%
    11:00 +5°C° 0.2 mm 3 mps 741 mmHg 89%
    12:00 +6°C° 0.2 mm 2 mps 741 mmHg 90%
    13:00 +6°C° 0.2 mm 2 mps 741 mmHg 92%
    14:00 +6°C° 0.2 mm 2 mps 741 mmHg 92%
    15:00 +7°C° 0.2 mm 1 mps 741 mmHg 93%
    16:00 +7°C° 0.2 mm 1 mps 741 mmHg 94%
    17:00 +7°C° 0.2 mm 1 mps 741 mmHg 94%
    18:00 +7°C° 0.2 mm 1 mps 741 mmHg 95%
    19:00 +7°C° 0.2 mm 1 mps 741 mmHg 95%
    20:00 +7°C° 0.3 mm 1 mps 741 mmHg 95%
    21:00 +7°C° 0.3 mm 1 mps 741 mmHg 95%
    22:00 +7°C° 0.3 mm 1 mps 741 mmHg 96%
    23:00 +7°C° 0.4 mm 1 mps 741 mmHg 95%
    Show more